Time,TemperatureF,DewpointF,PressureIn,WindDirection,WindDirectionDegrees,WindSpeedMPH,WindSpeedGustMPH,Humidity,HourlyPrecipIn,Conditions,Clouds,dailyrainin,SoftwareType,DateUTC
2013-06-12 00:03:00,71.0,63.0,29.85,SSE,159,0.0,2.0,77,0.00,,,0.00,,2013-06-12 04:03:00,
2013-06-12 00:13:00,71.0,63.0,29.85,SSE,159,0.0,2.0,77,0.00,,,0.00,,2013-06-12 04:13:00,
2013-06-12 00:23:00,70.0,64.0,29.84,SSE,159,0.0,1.0,80,0.00,,,0.00,,2013-06-12 04:23:00,
2013-06-12 00:33:00,69.0,63.0,29.83,SSE,159,0.0,0.0,82,0.00,,,0.00,,2013-06-12 04:33:00,
2013-06-12 00:42:00,69.0,63.0,29.83,SSE,159,0.0,0.0,82,0.00,,,0.00,,2013-06-12 04:42:00,
2013-06-12 00:52:00,69.0,64.0,29.83,SSE,159,0.0,1.0,84,0.00,,,0.00,,2013-06-12 04:52:00,
2013-06-12 01:03:00,69.0,64.0,29.83,SSE,159,0.0,1.0,85,0.00,,,0.00,,2013-06-12 05:03:00,
2013-06-12 01:12:00,69.0,64.0,29.83,SSE,159,0.0,1.0,85,0.00,,,0.00,,2013-06-12 05:12:00,
2013-06-12 01:22:00,68.0,64.0,29.83,SE,135,0.0,2.0,87,0.00,,,0.00,,2013-06-12 05:22:00,
2013-06-12 01:32:00,69.0,65.0,29.84,NNW,336,0.0,1.0,87,0.00,,,0.00,,2013-06-12 05:32:00,
2013-06-12 01:42:00,69.0,65.0,29.84,NNW,336,0.0,1.0,87,0.00,,,0.00,,2013-06-12 05:42:00,
2013-06-12 01:52:00,69.0,65.0,29.83,ESE,114,0.0,2.0,87,0.00,,,0.00,,2013-06-12 05:52:00,
2013-06-12 02:02:00,69.0,65.0,29.83,NW,326,0.0,3.0,87,0.00,,,0.00,,2013-06-12 06:02:00,
2013-06-12 02:12:00,69.0,65.0,29.83,NW,326,0.0,3.0,87,0.00,,,0.00,,2013-06-12 06:12:00,
2013-06-12 02:22:00,69.0,65.0,29.84,NW,325,0.0,0.0,88,0.00,,,0.00,,2013-06-12 06:22:00,
2013-06-12 02:32:00,69.0,65.0,29.84,NW,325,0.0,0.0,88,0.00,,,0.00,,2013-06-12 06:32:00,
2013-06-12 02:42:00,69.0,65.0,29.84,NW,325,0.0,0.0,88,0.00,,,0.00,,2013-06-12 06:42:00,
2013-06-12 02:52:00,68.0,65.0,29.82,NW,325,0.0,1.0,89,0.00,,,0.00,,2013-06-12 06:52:00,
2013-06-12 03:02:00,68.0,65.0,29.83,NNW,329,0.0,1.0,90,0.00,,,0.00,,2013-06-12 07:02:00,
2013-06-12 03:12:00,67.0,64.0,29.83,NNW,329,0.0,2.0,91,0.00,,,0.00,,2013-06-12 07:12:00,
2013-06-12 03:22:00,67.0,64.0,29.83,NNW,329,0.0,0.0,91,0.00,,,0.00,,2013-06-12 07:22:00,
2013-06-12 03:33:00,67.0,64.0,29.83,NNW,329,0.0,0.0,91,0.00,,,0.00,,2013-06-12 07:33:00,
2013-06-12 03:43:00,67.0,65.0,29.85,NNW,329,0.0,0.0,92,0.00,,,0.00,,2013-06-12 07:43:00,
2013-06-12 03:53:00,67.0,65.0,29.85,NNW,329,0.0,0.0,92,0.00,,,0.00,,2013-06-12 07:53:00,
2013-06-12 04:02:00,67.0,65.0,29.85,NNW,329,0.0,0.0,93,0.00,,,0.00,,2013-06-12 08:02:00,
2013-06-12 04:12:00,67.0,65.0,29.85,NNW,329,0.0,0.0,93,0.00,,,0.00,,2013-06-12 08:12:00,
2013-06-12 04:22:00,67.0,65.0,29.85,NNW,329,0.0,0.0,93,0.00,,,0.00,,2013-06-12 08:22:00,
2013-06-12 04:33:00,67.0,65.0,29.85,NNW,329,0.0,0.0,93,0.00,,,0.00,,2013-06-12 08:33:00,
2013-06-12 04:43:00,67.0,65.0,29.85,NNW,329,0.0,0.0,93,0.00,,,0.00,,2013-06-12 08:43:00,
2013-06-12 04:53:00,67.0,65.0,29.85,NNW,329,0.0,0.0,93,0.00,,,0.00,,2013-06-12 08:53:00,
2013-06-12 05:01:00,67.0,65.0,29.85,NNW,329,0.0,0.0,93,0.00,,,0.00,,2013-06-12 09:01:00,
2013-06-12 05:11:00,66.0,64.0,29.85,NNW,329,0.0,1.0,93,0.00,,,0.00,,2013-06-12 09:11:00,
2013-06-12 05:22:00,66.0,64.0,29.84,NNW,329,0.0,1.0,94,0.00,,,0.00,,2013-06-12 09:22:00,
2013-06-12 05:33:00,66.0,64.0,29.84,NNW,329,0.0,1.0,94,0.00,,,0.00,,2013-06-12 09:33:00,
2013-06-12 05:43:00,66.0,64.0,29.82,East,94,0.0,2.0,94,0.00,,,0.00,,2013-06-12 09:43:00,
2013-06-12 05:53:00,66.0,64.0,29.83,East,98,0.0,0.0,94,0.00,,,0.00,,2013-06-12 09:53:00,
2013-06-12 06:02:00,66.0,64.0,29.83,East,98,0.0,0.0,94,0.00,,,0.00,,2013-06-12 10:02:00,
2013-06-12 06:12:00,66.0,65.0,29.83,East,98,0.0,0.0,95,0.00,,,0.00,,2013-06-12 10:12:00,
2013-06-12 06:23:00,66.0,65.0,29.83,East,98,0.0,0.0,95,0.00,,,0.00,,2013-06-12 10:23:00,
2013-06-12 06:33:00,66.0,65.0,29.83,East,98,0.0,0.0,95,0.00,,,0.00,,2013-06-12 10:33:00,
2013-06-12 06:43:00,66.0,65.0,29.82,East,101,0.0,1.0,95,0.00,,,0.00,,2013-06-12 10:43:00,
2013-06-12 06:53:00,66.0,64.0,29.84,East,101,0.0,0.0,94,0.00,,,0.00,,2013-06-12 10:53:00,
2013-06-12 07:02:00,66.0,64.0,29.84,East,101,0.0,0.0,94,0.00,,,0.00,,2013-06-12 11:02:00,
2013-06-12 07:12:00,66.0,65.0,29.85,East,101,0.0,0.0,95,0.00,,,0.00,,2013-06-12 11:12:00,
2013-06-12 07:24:00,66.0,65.0,29.84,East,101,0.0,0.0,95,0.00,,,0.00,,2013-06-12 11:24:00,
2013-06-12 07:33:00,66.0,65.0,29.84,East,101,0.0,0.0,95,0.00,,,0.00,,2013-06-12 11:33:00,
2013-06-12 07:43:00,66.0,65.0,29.84,East,101,0.0,0.0,95,0.00,,,0.00,,2013-06-12 11:43:00,
2013-06-12 07:53:00,66.0,65.0,29.85,East,101,0.0,0.0,96,0.00,,,0.00,,2013-06-12 11:53:00,
2013-06-12 08:02:00,66.0,65.0,29.85,East,101,0.0,0.0,96,0.00,,,0.00,,2013-06-12 12:02:00,
2013-06-12 08:11:00,67.0,66.0,29.87,East,101,0.0,1.0,96,0.00,,,0.00,,2013-06-12 12:11:00,
2013-06-12 08:23:00,67.0,66.0,29.87,East,101,0.0,1.0,96,0.00,,,0.00,,2013-06-12 12:23:00,
2013-06-12 08:33:00,69.0,67.0,29.87,ESE,108,0.0,2.0,94,0.00,,,0.00,,2013-06-12 12:33:00,
2013-06-12 08:43:00,71.0,68.0,29.87,ESE,108,0.0,2.0,91,0.00,,,0.00,,2013-06-12 12:43:00,
2013-06-12 08:53:00,71.0,68.0,29.87,ESE,108,0.0,2.0,91,0.00,,,0.00,,2013-06-12 12:53:00,
2013-06-12 09:01:00,72.0,69.0,29.87,ESE,108,0.0,0.0,89,0.00,,,0.00,,2013-06-12 13:01:00,
2013-06-12 09:12:00,72.0,69.0,29.88,ESE,108,0.0,1.0,89,0.00,,,0.00,,2013-06-12 13:12:00,
2013-06-12 09:22:00,72.0,69.0,29.88,ESE,108,0.0,1.0,89,0.00,,,0.00,,2013-06-12 13:22:00,
2013-06-12 09:33:00,72.0,68.0,29.88,ESE,108,0.0,1.0,88,0.00,,,0.00,,2013-06-12 13:33:00,
2013-06-12 09:43:00,73.0,69.0,29.86,ESE,108,0.0,2.0,87,0.00,,,0.00,,2013-06-12 13:43:00,
2013-06-12 09:53:00,72.0,68.0,29.85,SE,140,1.0,4.0,88,0.00,,,0.00,,2013-06-12 13:53:00,
2013-06-12 10:02:00,72.0,68.0,29.85,SE,140,1.0,4.0,88,0.00,,,0.00,,2013-06-12 14:02:00,
2013-06-12 10:11:00,73.0,69.0,29.86,South,180,1.0,4.0,88,0.00,,,0.00,,2013-06-12 14:11:00,
2013-06-12 10:24:00,73.0,69.0,29.86,South,180,1.0,4.0,88,0.00,,,0.00,,2013-06-12 14:24:00,
2013-06-12 10:33:00,73.0,69.0,29.86,South,180,1.0,4.0,88,0.00,,,0.00,,2013-06-12 14:33:00,
2013-06-12 10:43:00,73.0,69.0,29.86,South,180,1.0,4.0,88,0.00,,,0.00,,2013-06-12 14:43:00,
2013-06-12 10:53:00,73.0,69.0,29.86,South,180,1.0,4.0,88,0.00,,,0.00,,2013-06-12 14:53:00,
2013-06-12 11:01:00,76.0,69.0,29.87,NNW,340,1.0,4.0,78,0.00,,,0.00,,2013-06-12 15:01:00,
2013-06-12 11:12:00,77.0,68.0,29.85,SE,136,0.0,2.0,75,0.00,,,0.00,,2013-06-12 15:12:00,
2013-06-12 11:23:00,78.0,69.0,29.83,SE,139,3.0,7.0,73,0.00,,,0.00,,2013-06-12 15:23:00,
2013-06-12 11:33:00,78.0,69.0,29.83,SE,139,3.0,7.0,73,0.00,,,0.00,,2013-06-12 15:33:00,
2013-06-12 11:43:00,78.0,69.0,29.84,South,169,0.0,5.0,74,0.00,,,0.00,,2013-06-12 15:43:00,
2013-06-12 11:52:00,78.0,69.0,29.84,South,169,0.0,5.0,74,0.00,,,0.00,,2013-06-12 15:52:00,
2013-06-12 12:02:00,79.0,69.0,29.80,ESE,122,3.0,7.0,72,0.00,,,0.00,,2013-06-12 16:02:00,
2013-06-12 12:12:00,79.0,70.0,29.83,SE,142,2.0,6.0,73,0.00,,,0.00,,2013-06-12 16:12:00,
2013-06-12 12:22:00,79.0,70.0,29.83,SE,142,2.0,6.0,73,0.00,,,0.00,,2013-06-12 16:22:00,
2013-06-12 12:33:00,79.0,70.0,29.82,ESE,122,2.0,8.0,73,0.00,,,0.00,,2013-06-12 16:33:00,
2013-06-12 12:43:00,78.0,69.0,29.81,SE,134,2.0,6.0,75,0.00,,,0.00,,2013-06-12 16:43:00,
2013-06-12 12:52:00,78.0,69.0,29.81,SE,134,2.0,6.0,75,0.00,,,0.00,,2013-06-12 16:52:00,
2013-06-12 13:01:00,78.0,69.0,29.81,SE,134,2.0,6.0,75,0.00,,,0.00,,2013-06-12 17:01:00,
2013-06-12 13:12:00,79.0,70.0,29.76,SE,136,4.0,11.0,75,0.00,,,0.00,,2013-06-12 17:12:00,
2013-06-12 13:23:00,79.0,70.0,29.76,SE,136,4.0,11.0,75,0.00,,,0.00,,2013-06-12 17:23:00,
2013-06-12 13:33:00,79.0,70.0,29.76,SE,136,4.0,11.0,75,0.00,,,0.00,,2013-06-12 17:33:00,
2013-06-12 13:42:00,80.0,72.0,29.76,SSW,194,1.0,4.0,78,0.00,,,0.00,,2013-06-12 17:42:00,
2013-06-12 13:52:00,80.0,72.0,29.76,SSW,194,1.0,4.0,78,0.00,,,0.00,,2013-06-12 17:52:00,
2013-06-12 14:02:00,81.0,72.0,29.74,SE,144,4.0,9.0,75,0.00,,,0.00,,2013-06-12 18:02:00,
2013-06-12 14:12:00,81.0,72.0,29.74,SE,144,4.0,9.0,75,0.00,,,0.00,,2013-06-12 18:12:00,
2013-06-12 14:22:00,80.0,72.0,29.71,South,178,2.0,11.0,76,0.00,,,0.00,,2013-06-12 18:22:00,
2013-06-12 14:33:00,80.0,72.0,29.71,South,178,2.0,11.0,76,0.00,,,0.00,,2013-06-12 18:33:00,
2013-06-12 14:43:00,81.0,73.0,29.73,SE,137,3.0,9.0,77,0.00,,,0.00,,2013-06-12 18:43:00,
2013-06-12 14:53:00,81.0,73.0,29.73,SE,137,3.0,9.0,77,0.00,,,0.00,,2013-06-12 18:53:00,
2013-06-12 15:01:00,81.0,73.0,29.73,SE,137,3.0,9.0,77,0.00,,,0.00,,2013-06-12 19:01:00,
2013-06-12 15:11:00,82.0,74.0,29.75,SE,136,2.0,8.0,78,0.00,,,0.00,,2013-06-12 19:11:00,
2013-06-12 15:22:00,82.0,74.0,29.75,SE,136,2.0,8.0,78,0.00,,,0.00,,2013-06-12 19:22:00,
2013-06-12 15:32:00,81.0,73.0,29.75,SSW,200,3.0,6.0,77,0.00,,,0.00,,2013-06-12 19:32:00,
2013-06-12 15:42:00,82.0,74.0,29.76,SSE,153,3.0,8.0,76,0.00,,,0.00,,2013-06-12 19:42:00,
2013-06-12 15:52:00,82.0,74.0,29.76,SSE,153,3.0,8.0,76,0.00,,,0.00,,2013-06-12 19:52:00,
2013-06-12 16:01:00,84.0,75.0,29.76,NNW,338,1.0,4.0,74,0.00,,,0.00,,2013-06-12 20:01:00,
2013-06-12 16:11:00,84.0,75.0,29.76,NNW,338,1.0,4.0,74,0.00,,,0.00,,2013-06-12 20:11:00,
2013-06-12 16:22:00,84.0,75.0,29.76,NNW,338,1.0,4.0,74,0.00,,,0.00,,2013-06-12 20:22:00,
2013-06-12 16:32:00,86.0,75.0,29.76,South,191,1.0,4.0,69,0.00,,,0.00,,2013-06-12 20:32:00,
2013-06-12 16:42:00,86.0,75.0,29.75,WSW,240,0.0,6.0,69,0.00,,,0.00,,2013-06-12 20:42:00,
2013-06-12 16:54:00,86.0,75.0,29.75,WSW,240,0.0,6.0,69,0.00,,,0.00,,2013-06-12 20:54:00,
2013-06-12 17:01:00,86.0,74.0,29.75,SE,129,1.0,5.0,68,0.00,,,0.00,,2013-06-12 21:01:00,
2013-06-12 17:12:00,87.0,74.0,29.73,NNW,334,1.0,8.0,66,0.00,,,0.00,,2013-06-12 21:12:00,
2013-06-12 17:22:00,87.0,74.0,29.73,NNW,334,1.0,8.0,66,0.00,,,0.00,,2013-06-12 21:22:00,
2013-06-12 17:33:00,87.0,74.0,29.73,East,98,0.0,5.0,66,0.00,,,0.00,,2013-06-12 21:33:00,
2013-06-12 17:43:00,88.0,74.0,29.71,NW,309,1.0,5.0,64,0.00,,,0.00,,2013-06-12 21:43:00,
2013-06-12 17:53:00,88.0,74.0,29.71,NW,309,1.0,5.0,64,0.00,,,0.00,,2013-06-12 21:53:00,
2013-06-12 18:01:00,88.0,73.0,29.71,NNE,12,0.0,5.0,62,0.00,,,0.00,,2013-06-12 22:01:00,
2013-06-12 18:11:00,88.0,73.0,29.69,NNW,331,1.0,5.0,61,0.00,,,0.00,,2013-06-12 22:11:00,
2013-06-12 18:22:00,88.0,73.0,29.69,NNW,331,1.0,5.0,61,0.00,,,0.00,,2013-06-12 22:22:00,
2013-06-12 18:32:00,88.0,73.0,29.69,NNW,331,1.0,5.0,61,0.00,,,0.00,,2013-06-12 22:32:00,
2013-06-12 18:43:00,88.0,74.0,29.68,SSE,159,0.0,3.0,63,0.00,,,0.00,,2013-06-12 22:43:00,
2013-06-12 18:52:00,88.0,74.0,29.68,SSE,159,0.0,3.0,63,0.00,,,0.00,,2013-06-12 22:52:00,
2013-06-12 19:02:00,88.0,74.0,29.68,SSE,159,0.0,3.0,63,0.00,,,0.00,,2013-06-12 23:02:00,
2013-06-12 19:12:00,88.0,74.0,29.68,SSE,159,0.0,3.0,63,0.00,,,0.00,,2013-06-12 23:12:00,
2013-06-12 19:22:00,85.0,73.0,29.68,SE,140,0.0,1.0,68,0.00,,,0.00,,2013-06-12 23:22:00,
2013-06-12 19:32:00,84.0,74.0,29.67,SE,140,0.0,0.0,71,0.00,,,0.00,,2013-06-12 23:32:00,
2013-06-12 19:42:00,84.0,74.0,29.67,SE,140,0.0,0.0,71,0.00,,,0.00,,2013-06-12 23:42:00,
2013-06-12 19:52:00,84.0,74.0,29.67,SE,140,0.0,0.0,71,0.00,,,0.00,,2013-06-12 23:52:00,
2013-06-12 20:01:00,83.0,74.0,29.65,SE,139,0.0,0.0,74,0.00,,,0.00,,2013-06-13 00:01:00,
2013-06-12 20:12:00,82.0,75.0,29.64,SE,139,0.0,2.0,79,0.00,,,0.00,,2013-06-13 00:12:00,
2013-06-12 20:22:00,82.0,75.0,29.64,SE,139,0.0,2.0,79,0.00,,,0.00,,2013-06-13 00:22:00,
2013-06-12 20:32:00,80.0,74.0,29.62,SE,139,0.0,1.0,81,0.00,,,0.00,,2013-06-13 00:32:00,
2013-06-12 20:42:00,80.0,74.0,29.62,ESE,111,1.0,5.0,81,0.00,,,0.00,,2013-06-13 00:42:00,
2013-06-12 20:52:00,80.0,74.0,29.62,ESE,111,1.0,5.0,81,0.00,,,0.00,,2013-06-13 00:52:00,
2013-06-12 21:01:00,80.0,74.0,29.62,ESE,111,0.0,1.0,83,0.00,,,0.00,,2013-06-13 01:01:00,
2013-06-12 21:12:00,80.0,74.0,29.63,SE,135,1.0,4.0,82,0.00,,,0.00,,2013-06-13 01:12:00,
2013-06-12 21:22:00,80.0,74.0,29.63,SE,135,1.0,4.0,82,0.00,,,0.00,,2013-06-13 01:22:00,
2013-06-12 21:32:00,80.0,74.0,29.63,SE,135,1.0,4.0,82,0.00,,,0.00,,2013-06-13 01:32:00,
2013-06-12 21:43:00,73.0,69.0,29.57,ESE,123,3.0,12.0,87,0.03,,,0.03,,2013-06-13 01:43:00,
2013-06-12 21:53:00,73.0,69.0,29.57,ESE,123,3.0,12.0,87,0.03,,,0.03,,2013-06-13 01:53:00,
2013-06-12 22:02:00,72.0,69.0,29.59,SE,142,6.0,10.0,89,0.03,,,0.03,,2013-06-13 02:02:00,
2013-06-12 22:12:00,71.0,68.0,29.62,SSE,149,2.0,10.0,90,0.05,,,0.05,,2013-06-13 02:12:00,
2013-06-12 22:22:00,71.0,68.0,29.62,SSE,149,2.0,10.0,90,0.05,,,0.05,,2013-06-13 02:22:00,
2013-06-12 22:33:00,71.0,68.0,29.63,South,175,3.0,7.0,91,0.07,,,0.07,,2013-06-13 02:33:00,
2013-06-12 22:43:00,71.0,68.0,29.63,South,175,3.0,7.0,91,0.07,,,0.07,,2013-06-13 02:43:00,
2013-06-12 22:52:00,70.0,68.0,29.60,SSE,150,3.0,9.0,93,0.08,,,0.11,,2013-06-13 02:52:00,
2013-06-12 23:02:00,70.0,68.0,29.64,SSE,167,2.0,4.0,93,0.12,,,0.15,,2013-06-13 03:02:00,
2013-06-12 23:12:00,70.0,68.0,29.64,SSE,167,2.0,4.0,93,0.12,,,0.15,,2013-06-13 03:12:00,
2013-06-12 23:22:00,69.0,67.0,29.58,SSW,193,0.0,2.0,93,0.13,,,0.18,,2013-06-13 03:22:00,
2013-06-12 23:33:00,69.0,67.0,29.62,NNE,27,1.0,9.0,94,0.12,,,0.19,,2013-06-13 03:33:00,
2013-06-12 23:43:00,68.0,66.0,29.63,NNW,333,5.0,11.0,92,0.09,,,0.20,,2013-06-13 03:43:00,
2013-06-12 23:52:00,68.0,66.0,29.63,NNW,333,5.0,11.0,92,0.09,,,0.20,,2013-06-13 03:52:00,